Home   Weather   West Palm Beach   Past weeks

Flag for USA Past Weather in West Palm Beach, Florida, USA — Yesterday and Last 2 Weeks

Now
78 °F

Passing clouds.


Feels Like: 81 °F
Forecast: 77 / 85 °F
Wind: 12 mph from Southeast

Location: Palm Beach International Airport

Current Time: Apr 28, 2017 at 4:33:23 am

Latest Report: Apr 28, 2017 at 3:53 am


Visibility: 10 mi

Pressure: 29.98 "Hg

Humidity: 84%

Dew Point: 73 °F

Location of West Palm BeachLocation

Past Weather in West Palm Beach — Graph

°F

West Palm Beach Temperature Yesterday

Maximum temperature yesterday: 87 °F (at 1:53 pm)
Minimum temperature yesterday: 76 °F (at 2:53 am)
Average temperature yesterday: 81 °F

High & Low Weather Summary for the Past Weeks

 TemperatureHumidityPressure
High87 °F (Apr 27, 1:53 pm)100% (Apr 23, 8:01 am)30.24 "Hg (Apr 23, 8:01 am)
Low61 °F (Apr 25, 6:53 am)42% (Apr 16, 12:53 pm)29.69 "Hg (Apr 24, 4:53 pm)
Average75 °F65%30.01 "Hg
* Reported Apr 13 2:53 am — Apr 28 2:53 am, West Palm Beach, Weather by CustomWeather, © 2017

Note: Actual official high and low records may vary slightly from our data, if they occured in-between our weather recording intervals... More about our weather records

Advertising

West Palm Beach Weather History for the Previous 24 Hours

Scroll right to see more
 ConditionsComfort  
Time TempWeatherWind HumidityBarometerVisibility
2:53 am
Fri, Apr 28
78 °FPassing clouds.12 mph82%29.99 "Hg10 mi
1:53 am79 °FPassing clouds.10 mph82%29.99 "Hg10 mi
12:53 am79 °FPassing clouds.12 mph82%29.99 "Hg10 mi
11:53 pm
Thu, Apr 27
79 °FPassing clouds.9 mph82%29.99 "Hg10 mi
10:53 pm79 °FClear.8 mph82%29.99 "Hg10 mi
9:53 pm79 °FPassing clouds.9 mph82%29.97 "Hg10 mi
8:53 pm79 °FPassing clouds.12 mph82%29.96 "Hg10 mi
7:53 pm80 °FPassing clouds.14 mph79%29.93 "Hg10 mi
6:53 pm82 °FScattered clouds.17 mph74%29.91 "Hg10 mi
5:53 pm84 °FScattered clouds.16 mph70%29.91 "Hg10 mi
4:53 pm85 °FBroken clouds.18 mph68%29.91 "Hg10 mi
3:53 pm86 °FScattered clouds.17 mph63%29.93 "Hg10 mi
2:53 pm87 °FPartly sunny.16 mph57%29.95 "Hg10 mi
2:38 pm87 °FBroken clouds.15 mph57%29.96 "Hg10 mi
1:53 pm87 °FBroken clouds.18 mph63%29.97 "Hg10 mi
12:53 pm86 °FPartly sunny.17 mph63%29.99 "Hg10 mi
11:53 am84 °FPartly sunny.13 mph65%29.99 "Hg10 mi
10:53 am84 °FPartly sunny.15 mph65%29.98 "Hg10 mi
9:53 am83 °FPartly sunny.12 mph68%29.96 "Hg10 mi
9:42 am83 °FPartly sunny.10 mph68%29.96 "Hg10 mi
8:53 am81 °FPassing clouds.10 mph69%29.94 "Hg10 mi
7:53 am79 °FPassing clouds.7 mph79%29.93 "Hg10 mi
6:53 am77 °FScattered clouds.8 mph88%29.92 "Hg10 mi
5:53 am78 °FPassing clouds.10 mph82%29.90 "Hg10 mi
4:53 am77 °FPassing clouds.5 mph88%29.90 "Hg10 mi
Weather by CustomWeather, © 2017

See weather overviewHow to use our weather pages